Regional Weather Roundup
Issued by NWS Northern Indiana

Home | Current Version | Previous Version | Text Only | Print | Product List | Glossary Off
Versions: 1 2 3 4 5 6 7 8 9 10 11 12 13 14 15 16 17 18 19 20 21 22 23 24 25 26 27 28 29 30 31 32 33 34 35 36 37 38 39 40 41 42 43 44 45 46 47 48 49 50

000
ASUS43 KIWX 200710
RWRIWX

KIWX WEATHER ROUNDUP
NATIONAL WEATHER SERVICE NORTHERN INDIANA
300 AM EDT SUN MAY 20 2018

NOTE: "FAIR" INDICATES FEW OR NO CLOUDS BELOW 12,000 FEET WITH NO
SIGNIFICANT WEATHER AND/OR OBSTRUCTIONS TO VISIBILITY.

* THESE STATIONS ARE NOT UNDER NWS QUALITY CONTROL. THEY ALSO MAY NOT
  REPORT WEATHER SUCH AS PRECIPITATION OR FOG.

INZ001>027-200800-
NORTHERN INDIANA

CITY           SKY/WX    TMP DP  RH WIND       PRES   REMARKS
GARY*          FOG       52  52  99 NE10      30.06S VSB 3/4
VALPARAISO     FAIR      60  56  86 N7        30.05R
LAPORTE*       MOCLDY    56  54  93 N9        30.04R
KNOX*          FAIR      55  55 100 CALM      30.03R
SOUTH BEND     MOCLDY    54  53  97 N8        30.04R
GOSHEN         FAIR      57  55  93 N3        30.01R
ROCHESTER*     FAIR      59  57  94 CALM      30.03R FOG
WARSAW*        FAIR      55  55 100 CALM      30.02R
AUBURN*        CLOUDY    57  55  94 NW7       30.02R
FORT WAYNE     MOCLDY    59  58  96 NW5       30.02R
PERU/GRISSOM   FAIR      59  59 100 CALM      30.01R FOG
MARION*        FAIR      60  58  94 CALM      30.03S FOG

$$
INZ028>050-200800-
CENTRAL INDIANA

CITY           SKY/WX    TMP DP  RH WIND       PRES   REMARKS
LAFAYETTE      MOCLDY    63  62  97 NE7       30.01R FOG
KOKOMO*        FAIR      60  59  96 NE5       30.03R FOG
MUNCIE*        FAIR      63  61  93 N5        30.02R FOG
INDIANAPOLIS   MOCLDY    67  65  93 SW5       30.01R

$$
MIZ043>046-050>051-056>058-064>065-071>073-077>080-200800-
SOUTHWEST LOWER MICHIGAN

CITY           SKY/WX    TMP DP  RH WIND       PRES   REMARKS
BATTLE CREEK   CLOUDY    57  54  89 NW7       30.04R
BENTON HARBOR  FOG       49  48  97 VRB3      30.04S VSB 1
COLDWATER*     CLOUDY    57  55  91 NW7       30.02R
HILLSDALE*     CLOUDY    55  54  94 NW9       30.00R
HOLLAND        CLOUDY    50  47  89 NW9       30.06R
GRAND RAPIDS   CLOUDY    57  53  86 N5        30.03R
KALAMAZOO      CLOUDY    56  53  90 NW8       30.05R
STURGIS*       CLOUDY    56  55  94 N8        30.02R
THREE RIVERS*  CLOUDY    56  53  89 NW6       30.04R

$$
OHZ001>008-015>018-024>025-200800-
NORTHWEST OHIO

CITY           SKY/WX    TMP DP  RH WIND       PRES   REMARKS
DEFIANCE       CLOUDY    59  56  89 NW14      30.00R
FINDLAY        FAIR      61  59  93 W6        29.97F
TOLEDO EXPRESS MOCLDY    61  58  90 NW9       29.97F
TOLEDO METCALF CLOUDY    63  59  87 W8        29.98R
LIMA           FAIR      61  59  93 W6        30.00S

$$
AND FOR LAKE MICHIGAN COASTAL AND OPEN LAKE BUOY OBSERVATIONS

STATION/POSITION TEMP    WIND        PRES    VSBY  WAVE
                 AIR SEA DIR/SP/G                  HT/PER
                 (F)     (DEG/KT/KT) (MB)    (MI)  (FT/S)
CALUMET HARBOR    49      10/ 11/ 15 1017.4R
MICHIGAN CITY     50      10/ 23/ 24   N/A
BURNS HARBOR      50      30/ 14/ 17 1018.3R
SAINT JOSEPH      49      20/  8/ 12 1017.3
4 MI NW BRIDGMAN  51 54   10/ 14/ 17 1017.7          2/ 3
MICHIGAN CITY     49 53   40/ 14/ 16   N/A           2/ 3

$$
&&



USA.gov is the U.S. government's official web portal to all federal, state and local government web resources and services.